When you browse on this site, cookies collect data to enhance your experience and personalize the content and advertising you see.
Visit our Privacy Policy to learn more. By continuing to use the site, you agree to this use of cookies and data.

Hourly Weather Brussels

Today, 26 September, Saturday

Time Temperature Precipitation Wind Pressure Humidity
00:00 +9°C° 0 mm 11 mps 745 mmHg 88%
01:00 +9°C° 1.6 mm 10 mps 745 mmHg 87%
02:00 +9°C° 1.6 mm 10 mps 745 mmHg 85%
03:00 +11°C° 1.6 mm 9 mps 745 mmHg 84%
04:00 +10°C° 0.7 mm 8 mps 745 mmHg 85%
05:00 +10°C° 0.7 mm 7 mps 745 mmHg 86%
06:00 +10°C° 0 mm 7 mps 746 mmHg 86%
07:00 +10°C° 0.6 mm 7 mps 746 mmHg 83%
08:00 +11°C° 0.6 mm 7 mps 747 mmHg 81%
09:00 +12°C° 0.6 mm 7 mps 747 mmHg 78%
10:00 +12°C° 0.9 mm 7 mps 747 mmHg 78%
11:00 +14°C° 0.9 mm 7 mps 747 mmHg 77%
12:00 +14°C° 0.9 mm 7 mps 747 mmHg 76%
13:00 +14°C° 0.6 mm 6 mps 747 mmHg 74%
14:00 +15°C° 0.6 mm 6 mps 747 mmHg 72%
15:00 +15°C° 0.6 mm 5 mps 747 mmHg 69%
16:00 +14°C° 0.3 mm 4 mps 747 mmHg 75%
17:00 +13°C° 0.3 mm 4 mps 747 mmHg 80%
18:00 +12°C° 0.3 mm 3 mps 747 mmHg 85%
19:00 +12°C° 0.8 mm 3 mps 747 mmHg 88%
20:00 +12°C° 0.8 mm 3 mps 747 mmHg 90%
21:00 +12°C° 0.8 mm 3 mps 747 mmHg 93%
22:00 +12°C° 2.1 mm 4 mps 747 mmHg 92%
23:00 +12°C° 2.1 mm 5 mps 746 mmHg 92%

Tomorrow, 27 September, Sunday

Time Temperature Precipitation Wind Pressure Humidity
00:00 +11°C° 2.1 mm 6 mps 746 mmHg 91%
01:00 +12°C° 2.7 mm 8 mps 745 mmHg 91%
02:00 +12°C° 2.7 mm 9 mps 744 mmHg 91%
03:00 +13°C° 2.7 mm 10 mps 743 mmHg 91%
04:00 +13°C° 0.9 mm 9 mps 743 mmHg 90%
05:00 +13°C° 0.9 mm 9 mps 743 mmHg 88%
06:00 +15°C° 0.9 mm 9 mps 743 mmHg 87%
07:00 +13°C° 0 mm 8 mps 744 mmHg 85%
08:00 +13°C° 0 mm 8 mps 745 mmHg 82%
09:00 +14°C° 0 mm 7 mps 745 mmHg 80%
10:00 +14°C° 0 mm 6 mps 746 mmHg 76%
11:00 +15°C° 0 mm 5 mps 747 mmHg 72%
12:00 +16°C° 0 mm 5 mps 748 mmHg 68%
13:00 +17°C° 0 mm 4 mps 749 mmHg 67%
14:00 +17°C° 0 mm 4 mps 749 mmHg 66%
15:00 +18°C° 0 mm 3 mps 750 mmHg 65%
16:00 +16°C° 0 mm 3 mps 750 mmHg 69%
17:00 +14°C° 0 mm 3 mps 751 mmHg 73%
18:00 +13°C° 0 mm 3 mps 751 mmHg 77%
19:00 +14°C° 0 mm 2 mps 752 mmHg 76%
20:00 +14°C° 0 mm 2 mps 753 mmHg 76%
21:00 +14°C° 0 mm 1 mps 753 mmHg 75%
22:00 +14°C° 0 mm 1 mps 753 mmHg 75%
23:00 +14°C° 0 mm 1 mps 753 mmHg 76%

Day after tomorrow, 28 September, Monday

Time Temperature Precipitation Wind Pressure Humidity
00:00 +13°C° 0 mm 0 mps 753 mmHg 76%
01:00 +14°C° 0 mm 1 mps 753 mmHg 77%
02:00 +14°C° 0 mm 2 mps 753 mmHg 78%
03:00 +14°C° 0 mm 2 mps 753 mmHg 79%
04:00 +13°C° 0.2 mm 2 mps 753 mmHg 82%
05:00 +13°C° 0.2 mm 2 mps 753 mmHg 86%
06:00 +12°C° 0.2 mm 3 mps 753 mmHg 89%
07:00 +13°C° 0.6 mm 3 mps 753 mmHg 91%
08:00 +13°C° 0.6 mm 3 mps 754 mmHg 92%
09:00 +13°C° 0.6 mm 3 mps 754 mmHg 94%
10:00 +14°C° 0.2 mm 3 mps 754 mmHg 93%
11:00 +16°C° 0.2 mm 3 mps 754 mmHg 92%
12:00 +16°C° 0.2 mm 3 mps 754 mmHg 92%
13:00 +16°C° 0.4 mm 3 mps 754 mmHg 92%
14:00 +17°C° 0.4 mm 4 mps 754 mmHg 93%
15:00 +17°C° 0.4 mm 4 mps 754 mmHg 93%
16:00 +17°C° 0.3 mm 4 mps 754 mmHg 94%
17:00 +17°C° 0.3 mm 4 mps 755 mmHg 94%
18:00 +17°C° 0.3 mm 4 mps 755 mmHg 94%
19:00 +15°C° 0.2 mm 4 mps 755 mmHg 94%
20:00 +15°C° 0.2 mm 4 mps 756 mmHg 94%
21:00 +15°C° 0.2 mm 4 mps 756 mmHg 94%
22:00 +15°C° 0.1 mm 4 mps 756 mmHg 94%
23:00 +15°C° 0.1 mm 4 mps 756 mmHg 94%

29 September, Tuesday

Time Temperature Precipitation Wind Pressure Humidity
00:00 +16°C° 0.1 mm 3 mps 756 mmHg 93%
01:00 +14°C° 0 mm 3 mps 757 mmHg 93%
02:00 +14°C° 0 mm 3 mps 757 mmHg 92%
03:00 +14°C° 0 mm 3 mps 757 mmHg 92%
04:00 +13°C° 0 mm 3 mps 757 mmHg 90%
05:00 +12°C° 0 mm 3 mps 757 mmHg 89%
06:00 +12°C° 0 mm 3 mps 757 mmHg 88%
07:00 +13°C° 0 mm 3 mps 758 mmHg 82%
08:00 +14°C° 0 mm 3 mps 758 mmHg 77%
09:00 +16°C° 0 mm 3 mps 758 mmHg 72%
10:00 +17°C° 0 mm 3 mps 758 mmHg 70%
11:00 +19°C° 0 mm 3 mps 758 mmHg 68%
12:00 +20°C° 0 mm 3 mps 758 mmHg 66%
13:00 +19°C° 0.1 mm 4 mps 758 mmHg 70%
14:00 +19°C° 0.1 mm 4 mps 758 mmHg 74%
15:00 +18°C° 0.1 mm 4 mps 758 mmHg 78%
16:00 +17°C° 0 mm 4 mps 758 mmHg 82%
17:00 +16°C° 0 mm 3 mps 758 mmHg 86%
18:00 +14°C° 0 mm 3 mps 758 mmHg 90%
19:00 +14°C° 0.1 mm 3 mps 758 mmHg 89%
20:00 +15°C° 0.1 mm 2 mps 758 mmHg 87%
21:00 +15°C° 0.1 mm 2 mps 758 mmHg 86%
22:00 +14°C° 0 mm 2 mps 758 mmHg 87%
23:00 +14°C° 0 mm 2 mps 758 mmHg 87%

30 September, Wednesday

Time Temperature Precipitation Wind Pressure Humidity
00:00 +13°C° 0 mm 2 mps 758 mmHg 88%
01:00 +13°C° 0 mm 2 mps 758 mmHg 88%
02:00 +12°C° 0 mm 2 mps 758 mmHg 88%
03:00 +12°C° 0 mm 2 mps 757 mmHg 88%
04:00 +12°C° 0 mm 2 mps 757 mmHg 86%
05:00 +12°C° 0 mm 2 mps 757 mmHg 84%
06:00 +12°C° 0 mm 2 mps 757 mmHg 83%
07:00 +13°C° 0 mm 2 mps 757 mmHg 78%
08:00 +14°C° 0 mm 2 mps 757 mmHg 74%
09:00 +14°C° 0 mm 3 mps 757 mmHg 70%
10:00 +16°C° 0 mm 3 mps 757 mmHg 65%
11:00 +16°C° 0 mm 3 mps 756 mmHg 61%
12:00 +17°C° 0 mm 3 mps 756 mmHg 57%
13:00 +17°C° 0 mm 3 mps 756 mmHg 57%
14:00 +17°C° 0 mm 3 mps 755 mmHg 58%
15:00 +17°C° 0 mm 3 mps 755 mmHg 58%
16:00 +16°C° 0 mm 3 mps 754 mmHg 62%
17:00 +14°C° 0 mm 3 mps 754 mmHg 67%
18:00 +14°C° 0 mm 2 mps 754 mmHg 71%
19:00 +13°C° 0 mm 3 mps 753 mmHg 72%
20:00 +13°C° 0 mm 3 mps 753 mmHg 73%
21:00 +13°C° 0 mm 4 mps 753 mmHg 74%
22:00 +13°C° 0 mm 4 mps 752 mmHg 75%
23:00 +14°C° 0 mm 5 mps 751 mmHg 77%

1 October, Thursday

Time Temperature Precipitation Wind Pressure Humidity
00:00 +14°C° 0 mm 5 mps 750 mmHg 79%
01:00 +14°C° 0.1 mm 5 mps 749 mmHg 81%
02:00 +14°C° 0.1 mm 5 mps 748 mmHg 83%
03:00 +14°C° 0.1 mm 5 mps 748 mmHg 86%
04:00 +14°C° 0.5 mm 6 mps 747 mmHg 87%
05:00 +14°C° 0.5 mm 6 mps 747 mmHg 88%
06:00 +14°C° 0.5 mm 6 mps 746 mmHg 90%
07:00 +14°C° 0.1 mm 6 mps 746 mmHg 87%
08:00 +14°C° 0.1 mm 6 mps 745 mmHg 85%
09:00 +15°C° 0.1 mm 6 mps 745 mmHg 82%
10:00 +15°C° 0.3 mm 5 mps 745 mmHg 83%
11:00 +15°C° 0.3 mm 5 mps 745 mmHg 83%
12:00 +14°C° 0.3 mm 4 mps 744 mmHg 83%
13:00 +15°C° 0.2 mm 4 mps 744 mmHg 80%
14:00 +17°C° 0.2 mm 4 mps 744 mmHg 76%
15:00 +17°C° 0.2 mm 4 mps 744 mmHg 72%
16:00 +15°C° 0.1 mm 4 mps 744 mmHg 77%
17:00 +14°C° 0.1 mm 3 mps 744 mmHg 82%
18:00 +13°C° 0.1 mm 2 mps 744 mmHg 87%
19:00 +12°C° 0 mm 3 mps 744 mmHg 86%
20:00 +12°C° 0 mm 4 mps 744 mmHg 86%
21:00 +12°C° 0 mm 4 mps 743 mmHg 85%
22:00 +12°C° 0.1 mm 5 mps 742 mmHg 85%
23:00 +11°C° 0.1 mm 6 mps 741 mmHg 85%
Show more